Regional Weather Roundup
Issued by NWS

Home | Current Version | Previous Version | Text Only | Print | Product List | Glossary On
Versions: 1 2 3 4 5 6 7 8 9 10 11 12 13 14 15 16 17 18 19 20 21 22 23 24 25 26 27 28 29 30 31 32 33 34 35 36 37 38 39 40 41 42 43 44 45 46 47 48 49 50
000
ASUS42 KFFC 280510
RWRGA
WEATHER ROUNDUP FOR GEORGIA
NATIONAL WEATHER SERVICE PEACHTREE CITY GA
100 AM EDT FRI AUG 28 2015

NOTE: "FAIR" INDICATES FEW OR NO CLOUDS BELOW 12,000 FEET WITH NO
SIGNIFICANT WEATHER AND/OR OBSTRUCTIONS TO VISIBILITY.

* = USE WITH CAUTION. THE STATIONS MARKED WITH AN ASTERISK MAY NOT
REPORT WEATHER SUCH AS PRECIPITATION, FOG, OR THUNDER AND ARE NOT
QUALITY CONTROLLED BY NWS.

THE REMARK "TC" DENOTES TEMPERATURE READING IN DEGREES CELSIUS.

GAZ001>058-280600-
NORTH GEORGIA

CITY           SKY/WX    TMP DP  RH WIND       PRES   REMARKS
ATLANTA        CLEAR     72  65  78 E7        30.06F
ATHENS         CLEAR     70  66  87 E6        30.07F
CHAMBLEE       CLEAR     73  66  78 CALM      30.07S
PEACHTREE CITY CLEAR     66  65  96 CALM      30.06F FOG
ROME           CLEAR     68  65  90 NE3       30.06S
WEST ATLANTA   CLEAR     70  65  84 CALM      30.06F
GAINESVILLE    CLEAR     70  64  81 NE6       30.12R
CARTERSVILLE   CLEAR     65  64  97 CALM      30.07F


CITY           SKY/WX    TMP DP  RH WIND       PRES   REMARKS
DALTON*        CLEAR     66  66 100 CALM      30.07F
MARIETTA       CLEAR     70  65  86 VRB2      30.07F
BLAIRSVILLE*     N/A     62  55  76 CALM      30.15S HAZE
$$

GAZ059>098-102>109-280600-
CENTRAL GEORGIA

CITY           SKY/WX    TMP DP  RH WIND       PRES   REMARKS
AUGUSTA-BUSH   MOCLDY    72  71  97 CALM      30.07R
AUGUSTA-DANIEL MOCLDY    78  70  76 E8        30.09R
COLUMBUS       CLEAR     76  66  71 E6        30.02S
MACON          PTCLDY    73  68  84 CALM      30.04S
ROBINS AFB     CLEAR     73  69  88 CALM      30.03F


CITY           SKY/WX    TMP DP  RH WIND       PRES   REMARKS
LAGRANGE*      CLEAR     75  72  90 CALM      30.04S
SYLVANIA*      PTCLDY    75  74  97 E3        30.07S
MILLEDGEVILLE* CLEAR     77  68  73 E3        30.06S
$$

GAZ099>101-110>166-280600-
SOUTH GEORGIA

CITY           SKY/WX    TMP DP  RH WIND       PRES   REMARKS
SAVANNAH       MOCLDY    76  72  87 NE8       30.04S
VALDOSTA       CLEAR     74  67  78 NE3       30.00R
ALMA           CLOUDY    74  71  91 NE3       30.02S
ST SIMONS      MOCLDY    81  72  74 E9        30.00F
FT STEWART     MOCLDY    74  72  93 CALM      30.01S
ALBANY         PTCLDY    77  69  76 E7        30.01S
HUNTER AFB     MOCLDY    76  74  94 NE1       30.01S
MOODY AFB      CLEAR     72  67  83 E6        30.00S
BRUNSWICK      MOCLDY    77  73  88 CALM      30.02S


CITY           SKY/WX    TMP DP  RH WIND       PRES   REMARKS
BAINBRIDGE*    PTCLDY    77  64  65 CALM      29.97F
MOULTRIE*      MOCLDY    79  70  73 E3        30.00S
VIDALIA*       PTCLDY    73  72  94 NE5       30.05R
WAYCROSS*      MOCLDY    76  76  99 E5        30.01F
DOUGLAS*       CLOUDY    77  70  78 NE6       30.03S
$$


USA.gov is the U.S. government's official web portal to all federal, state and local government web resources and services.